Time,TemperatureF,DewpointF,PressureIn,WindDirection,WindDirectionDegrees,WindSpeedMPH,WindSpeedGustMPH,Humidity,HourlyPrecipIn,Conditions,Clouds,dailyrainin,SoftwareType,DateUTC
2013-10-26 00:14:00,47.0,-99.9,-100.00,South,189,18.0,31.0,-999,-99.99,,,-99.99,,2013-10-26 04:14:00,
2013-10-26 00:24:00,48.0,-99.9,-100.00,SSW,194,33.0,39.0,-999,-99.99,,,-99.99,,2013-10-26 04:24:00,
2013-10-26 00:44:00,48.0,-99.9,-100.00,SSW,194,33.0,33.0,-999,-99.99,,,-99.99,,2013-10-26 04:44:00,
2013-10-26 00:54:00,48.0,-99.9,-100.00,SSW,194,33.0,33.0,-999,-99.99,,,-99.99,,2013-10-26 04:54:00,
2013-10-26 01:04:00,48.0,-99.9,-100.00,SSW,194,33.0,33.0,-999,-99.99,,,-99.99,,2013-10-26 05:04:00,
2013-10-26 01:23:00,49.0,-99.9,-100.00,SSW,196,31.0,39.0,-999,-99.99,,,-99.99,,2013-10-26 05:23:00,
2013-10-26 01:43:00,49.0,-99.9,-100.00,SSW,195,31.0,41.0,-999,-99.99,,,-99.99,,2013-10-26 05:43:00,
2013-10-26 01:52:00,49.0,-99.9,-100.00,SSW,195,31.0,41.0,-999,-99.99,,,-99.99,,2013-10-26 05:52:00,
2013-10-26 02:12:00,49.0,-99.9,-100.00,SSW,195,31.0,41.0,-999,-99.99,,,-99.99,,2013-10-26 06:12:00,
2013-10-26 02:22:00,49.0,-99.9,-100.00,SSW,195,34.0,42.0,-999,-99.99,,,-99.99,,2013-10-26 06:22:00,
2013-10-26 02:32:00,49.0,-99.9,-100.00,SSW,195,34.0,42.0,-999,-99.99,,,-99.99,,2013-10-26 06:32:00,
2013-10-26 03:22:00,48.0,-99.9,-100.00,SSW,196,37.0,42.0,-999,-99.99,,,-99.99,,2013-10-26 07:22:00,
2013-10-26 03:32:00,48.0,-99.9,-100.00,SSW,196,37.0,42.0,-999,-99.99,,,-99.99,,2013-10-26 07:32:00,
2013-10-26 04:12:00,48.0,-99.9,-100.00,SSW,197,34.0,41.0,-999,-99.99,,,-99.99,,2013-10-26 08:12:00,
2013-10-26 04:22:00,48.0,-99.9,-100.00,SSW,196,35.0,44.0,-999,-99.99,,,-99.99,,2013-10-26 08:22:00,
2013-10-26 04:32:00,48.0,-99.9,-100.00,SSW,196,35.0,44.0,-999,-99.99,,,-99.99,,2013-10-26 08:32:00,
2013-10-26 05:00:00,48.0,-99.9,-100.00,SSW,194,32.0,43.0,-999,-99.99,,,-99.99,,2013-10-26 09:00:00,
2013-10-26 05:11:00,48.0,-99.9,-100.00,SSW,196,36.0,41.0,-999,-99.99,,,-99.99,,2013-10-26 09:11:00,
2013-10-26 05:22:00,48.0,-99.9,-100.00,SSW,194,32.0,43.0,-999,-99.99,,,-99.99,,2013-10-26 09:22:00,
2013-10-26 05:33:00,48.0,-99.9,-100.00,SSW,194,32.0,43.0,-999,-99.99,,,-99.99,,2013-10-26 09:33:00,
2013-10-26 05:43:00,48.0,-99.9,-100.00,SSW,194,32.0,43.0,-999,-99.99,,,-99.99,,2013-10-26 09:43:00,
2013-10-26 05:54:00,48.0,-99.9,-100.00,SSW,194,32.0,43.0,-999,-99.99,,,-99.99,,2013-10-26 09:54:00,
2013-10-26 06:23:00,48.0,-99.9,-100.00,SSW,195,34.0,40.0,-999,-99.99,,,-99.99,,2013-10-26 10:23:00,
2013-10-26 06:33:00,48.0,-99.9,-100.00,SSW,195,34.0,40.0,-999,-99.99,,,-99.99,,2013-10-26 10:33:00,
2013-10-26 06:42:00,48.0,-99.9,-100.00,SSW,195,34.0,40.0,-999,-99.99,,,-99.99,,2013-10-26 10:42:00,
2013-10-26 06:53:00,48.0,-99.9,-100.00,SSW,192,31.0,41.0,-999,-99.99,,,-99.99,,2013-10-26 10:53:00,
2013-10-26 07:03:00,48.0,-99.9,-100.00,SSW,192,31.0,41.0,-999,-99.99,,,-99.99,,2013-10-26 11:03:00,
2013-10-26 07:12:00,48.0,-99.9,-100.00,SSW,192,31.0,41.0,-999,-99.99,,,-99.99,,2013-10-26 11:12:00,
2013-10-26 07:22:00,48.0,-99.9,-100.00,South,190,29.0,37.0,-999,-99.99,,,-99.99,,2013-10-26 11:22:00,
2013-10-26 07:33:00,48.0,-99.9,-100.00,South,190,29.0,37.0,-999,-99.99,,,-99.99,,2013-10-26 11:33:00,
2013-10-26 07:52:00,49.0,-99.9,-100.00,SSW,196,31.0,33.0,-999,-99.99,,,-99.99,,2013-10-26 11:52:00,
2013-10-26 08:01:00,49.0,-99.9,-100.00,SSW,196,31.0,33.0,-999,-99.99,,,-99.99,,2013-10-26 12:01:00,
2013-10-26 08:22:00,49.0,-99.9,-100.00,SSW,204,34.0,42.0,-999,-99.99,,,-99.99,,2013-10-26 12:22:00,
2013-10-26 08:42:00,49.0,-99.9,-100.00,SSW,197,35.0,0.0,-999,-99.99,,,-99.99,,2013-10-26 12:42:00,
2013-10-26 08:52:00,49.0,-99.9,-100.00,SSW,197,35.0,0.0,-999,-99.99,,,-99.99,,2013-10-26 12:52:00,
2013-10-26 09:12:00,49.0,-99.9,-100.00,SSW,205,33.0,43.0,-999,-99.99,,,-99.99,,2013-10-26 13:12:00,
2013-10-26 09:22:00,49.0,-99.9,-100.00,SSW,204,33.0,39.0,-999,-99.99,,,-99.99,,2013-10-26 13:22:00,
2013-10-26 09:32:00,49.0,-99.9,-100.00,SSW,204,33.0,39.0,-999,-99.99,,,-99.99,,2013-10-26 13:32:00,
2013-10-26 09:42:00,49.0,-99.9,-100.00,SSW,204,33.0,39.0,-999,-99.99,,,-99.99,,2013-10-26 13:42:00,
2013-10-26 09:52:00,49.0,-99.9,-100.00,SSW,198,30.0,0.0,-999,-99.99,,,-99.99,,2013-10-26 13:52:00,
2013-10-26 10:02:00,49.0,-99.9,-100.00,SSW,198,30.0,0.0,-999,-99.99,,,-99.99,,2013-10-26 14:02:00,
2013-10-26 10:22:00,50.0,-99.9,-100.00,SW,214,31.0,38.0,-999,-99.99,,,-99.99,,2013-10-26 14:22:00,
2013-10-26 10:42:00,50.0,-99.9,-100.00,SW,216,29.0,0.0,-999,-99.99,,,-99.99,,2013-10-26 14:42:00,
2013-10-26 10:52:00,50.0,-99.9,-100.00,SW,216,29.0,0.0,-999,-99.99,,,-99.99,,2013-10-26 14:52:00,
2013-10-26 11:23:00,50.0,-99.9,-100.00,SW,220,26.0,32.0,-999,-99.99,,,-99.99,,2013-10-26 15:23:00,
2013-10-26 11:34:00,50.0,-99.9,-100.00,SW,220,26.0,32.0,-999,-99.99,,,-99.99,,2013-10-26 15:34:00,
2013-10-26 11:55:00,50.0,-99.9,-100.00,SW,226,27.0,0.0,-999,-99.99,,,-99.99,,2013-10-26 15:55:00,
2013-10-26 12:14:00,50.0,-99.9,-100.00,SW,218,24.0,30.0,-999,-99.99,,,-99.99,,2013-10-26 16:14:00,
2013-10-26 12:24:00,50.0,-99.9,-100.00,SW,228,23.0,32.0,-999,-99.99,,,-99.99,,2013-10-26 16:24:00,
2013-10-26 12:44:00,50.0,-99.9,-100.00,SW,230,23.0,0.0,-999,-99.99,,,-99.99,,2013-10-26 16:44:00,
2013-10-26 13:13:00,50.0,-99.9,-100.00,SW,230,23.0,0.0,-999,-99.99,,,-99.99,,2013-10-26 17:13:00,
2013-10-26 13:23:00,50.0,-99.9,-100.00,WSW,243,21.0,27.0,-999,-99.99,,,-99.99,,2013-10-26 17:23:00,
2013-10-26 13:43:00,50.0,-99.9,-100.00,WSW,243,20.0,28.0,-999,-99.99,,,-99.99,,2013-10-26 17:43:00,
2013-10-26 13:52:00,50.0,-99.9,-100.00,WSW,243,20.0,28.0,-999,-99.99,,,-99.99,,2013-10-26 17:52:00,
2013-10-26 14:12:00,50.0,-99.9,-100.00,WSW,243,20.0,28.0,-999,-99.99,,,-99.99,,2013-10-26 18:12:00,
2013-10-26 14:22:00,50.0,-99.9,-100.00,West,261,18.0,24.0,-999,-99.99,,,-99.99,,2013-10-26 18:22:00,
2013-10-26 14:32:00,50.0,-99.9,-100.00,West,261,18.0,24.0,-999,-99.99,,,-99.99,,2013-10-26 18:32:00,
2013-10-26 14:52:00,50.0,-99.9,-100.00,West,264,19.0,29.0,-999,-99.99,,,-99.99,,2013-10-26 18:52:00,
2013-10-26 15:02:00,50.0,-99.9,-100.00,West,264,19.0,29.0,-999,-99.99,,,-99.99,,2013-10-26 19:02:00,
2013-10-26 15:22:00,51.0,-99.9,-100.00,WNW,299,18.0,25.0,-999,-99.99,,,-99.99,,2013-10-26 19:22:00,
2013-10-26 15:32:00,51.0,-99.9,-100.00,WNW,299,18.0,25.0,-999,-99.99,,,-99.99,,2013-10-26 19:32:00,
2013-10-26 15:52:00,51.0,-99.9,-100.00,WNW,296,18.0,25.0,-999,-99.99,,,-99.99,,2013-10-26 19:52:00,
2013-10-26 16:12:00,51.0,-99.9,-100.00,WNW,296,18.0,25.0,-999,-99.99,,,-99.99,,2013-10-26 20:12:00,
2013-10-26 16:22:00,51.0,-99.9,-100.00,NW,305,19.0,27.0,-999,-99.99,,,-99.99,,2013-10-26 20:22:00,
2013-10-26 16:43:00,51.0,-99.9,-100.00,WNW,303,18.0,24.0,-999,-99.99,,,-99.99,,2013-10-26 20:43:00,
2013-10-26 16:52:00,51.0,-99.9,-100.00,WNW,303,18.0,24.0,-999,-99.99,,,-99.99,,2013-10-26 20:52:00,
2013-10-26 17:02:00,51.0,-99.9,-100.00,WNW,303,18.0,24.0,-999,-99.99,,,-99.99,,2013-10-26 21:02:00,
2013-10-26 17:22:00,51.0,-99.9,-100.00,NW,316,21.0,26.0,-999,-99.99,,,-99.99,,2013-10-26 21:22:00,
2013-10-26 17:34:00,51.0,-99.9,-100.00,NW,316,21.0,26.0,-999,-99.99,,,-99.99,,2013-10-26 21:34:00,
2013-10-26 17:44:00,51.0,-99.9,-100.00,NW,316,21.0,26.0,-999,-99.99,,,-99.99,,2013-10-26 21:44:00,
2013-10-26 17:55:00,50.0,-99.9,-100.00,NW,314,22.0,29.0,-999,-99.99,,,-99.99,,2013-10-26 21:55:00,
2013-10-26 18:14:00,50.0,-99.9,-100.00,NW,314,22.0,29.0,-999,-99.99,,,-99.99,,2013-10-26 22:14:00,
2013-10-26 18:24:00,51.0,-99.9,-100.00,NW,308,20.0,25.0,-999,-99.99,,,-99.99,,2013-10-26 22:24:00,
2013-10-26 18:33:00,51.0,-99.9,-100.00,NW,308,20.0,25.0,-999,-99.99,,,-99.99,,2013-10-26 22:33:00,
2013-10-26 18:44:00,51.0,-99.9,-100.00,NW,308,20.0,25.0,-999,-99.99,,,-99.99,,2013-10-26 22:44:00,
2013-10-26 18:54:00,51.0,-99.9,-100.00,WNW,299,18.0,27.0,-999,-99.99,,,-99.99,,2013-10-26 22:54:00,
2013-10-26 19:03:00,51.0,-99.9,-100.00,WNW,299,18.0,27.0,-999,-99.99,,,-99.99,,2013-10-26 23:03:00,
2013-10-26 19:22:00,50.0,-99.9,-100.00,NW,310,15.0,26.0,-999,-99.99,,,-99.99,,2013-10-26 23:22:00,
2013-10-26 19:34:00,50.0,-99.9,-100.00,NW,310,15.0,26.0,-999,-99.99,,,-99.99,,2013-10-26 23:34:00,
2013-10-26 19:52:00,50.0,-99.9,-100.00,NW,309,19.0,28.0,-999,-99.99,,,-99.99,,2013-10-26 23:52:00,
2013-10-26 20:12:00,50.0,-99.9,-100.00,NW,309,19.0,28.0,-999,-99.99,,,-99.99,,2013-10-27 00:12:00,
2013-10-26 20:22:00,50.0,-99.9,-100.00,NW,305,18.0,23.0,-999,-99.99,,,-99.99,,2013-10-27 00:22:00,
2013-10-26 20:42:00,50.0,-99.9,-100.00,NW,310,16.0,25.0,-999,-99.99,,,-99.99,,2013-10-27 00:42:00,
2013-10-26 21:00:00,50.0,-99.9,-100.00,NW,307,17.0,22.0,-999,-99.99,,,-99.99,,2013-10-27 01:00:00,
2013-10-26 21:23:00,50.0,-99.9,-100.00,NW,307,17.0,22.0,-999,-99.99,,,-99.99,,2013-10-27 01:23:00,
2013-10-26 21:32:00,50.0,-99.9,-100.00,NW,307,17.0,22.0,-999,-99.99,,,-99.99,,2013-10-27 01:32:00,
2013-10-26 21:42:00,50.0,-99.9,-100.00,NW,307,17.0,22.0,-999,-99.99,,,-99.99,,2013-10-27 01:42:00,
2013-10-26 21:52:00,50.0,-99.9,-100.00,NW,307,17.0,22.0,-999,-99.99,,,-99.99,,2013-10-27 01:52:00,
2013-10-26 23:22:00,50.0,-99.9,-100.00,NW,312,18.0,24.0,-999,-99.99,,,-99.99,,2013-10-27 03:22:00,
2013-10-26 23:34:00,50.0,-99.9,-100.00,NW,312,18.0,24.0,-999,-99.99,,,-99.99,,2013-10-27 03:34:00,
2013-10-26 23:55:00,50.0,-99.9,-100.00,NW,313,20.0,26.0,-999,-99.99,,,-99.99,,2013-10-27 03:55:00,